• In Belgien
  • Länderverzeichnis
  • Für 7 Tage
  • Wassertemperatur
  • Satellitenkarten
  • Wetterkarte
  • Widgets
  • user-avatar
    Anmelden

    Stündliche Wetter Vanadzor

    Heute, 23 November, Donnerstag

    Zeit Temperatur Niederschläge Wind Luftdruck Luftfeuchtigkeit
    00:00 -6°C° 0 mm 2 m/S 628 mmHg 82%
    01:00 -6°C° 0 mm 2 m/S 628 mmHg 81%
    02:00 -6°C° 0 mm 2 m/S 628 mmHg 80%
    03:00 -6°C° 0 mm 2 m/S 628 mmHg 80%
    04:00 -6°C° 0,1 mm 2 m/S 629 mmHg 80%
    05:00 -6°C° 0,1 mm 2 m/S 629 mmHg 80%
    06:00 -6°C° 0,1 mm 2 m/S 629 mmHg 81%
    07:00 -6°C° 0,1 mm 2 m/S 629 mmHg 80%
    08:00 -5°C° 0,1 mm 2 m/S 629 mmHg 80%
    09:00 -4°C° 0 mm 3 m/S 629 mmHg 71%
    10:00 -4°C° 0,1 mm 3 m/S 629 mmHg 67%
    11:00 -2°C° 0,1 mm 3 m/S 630 mmHg 64%
    12:00 -2°C° 0,1 mm 4 m/S 630 mmHg 61%
    13:00 -2°C° 0,1 mm 3 m/S 630 mmHg 61%
    14:00 -2°C° 0,1 mm 3 m/S 630 mmHg 61%
    15:00 -2°C° 0,1 mm 2 m/S 630 mmHg 62%
    16:00 -3°C° 0,1 mm 2 m/S 630 mmHg 66%
    17:00 -3°C° 0,1 mm 2 m/S 630 mmHg 70%
    18:00 -2°C° 0,1 mm 1 m/S 631 mmHg 75%
    19:00 -3°C° 0,2 mm 1 m/S 631 mmHg 77%
    20:00 -3°C° 0,2 mm 1 m/S 631 mmHg 79%
    21:00 -4°C° 0,2 mm 1 m/S 631 mmHg 82%
    22:00 -4°C° 0,2 mm 1 m/S 631 mmHg 82%
    23:00 -4°C° 0,2 mm 1 m/S 631 mmHg 83%

    Morgen, 24 November, Freitag

    Zeit Temperatur Niederschläge Wind Luftdruck Luftfeuchtigkeit
    00:00 -4°C° 0,2 mm 1 m/S 632 mmHg 83%
    01:00 -4°C° 0,1 mm 1 m/S 632 mmHg 83%
    02:00 -6°C° 0,1 mm 1 m/S 632 mmHg 83%
    03:00 -6°C° 0,1 mm 1 m/S 632 mmHg 83%
    04:00 -6°C° 0,1 mm 1 m/S 632 mmHg 83%
    05:00 -7°C° 0,1 mm 1 m/S 632 mmHg 83%
    06:00 -7°C° 0,1 mm 0 m/S 632 mmHg 82%
    07:00 -6°C° 0 mm 1 m/S 632 mmHg 79%
    08:00 -6°C° 0 mm 1 m/S 633 mmHg 76%
    09:00 -4°C° 0 mm 1 m/S 633 mmHg 72%
    10:00 -3°C° 0 mm 1 m/S 633 mmHg 68%
    11:00 -3°C° 0 mm 1 m/S 633 mmHg 63%
    12:00 -2°C° 0 mm 1 m/S 633 mmHg 58%
    13:00 -2°C° 0 mm 1 m/S 633 mmHg 59%
    14:00 -2°C° 0 mm 1 m/S 633 mmHg 60%
    15:00 -2°C° 0 mm 1 m/S 633 mmHg 61%
    16:00 -3°C° 0 mm 1 m/S 633 mmHg 65%
    17:00 -4°C° 0 mm 1 m/S 633 mmHg 69%
    18:00 -6°C° 0 mm 1 m/S 633 mmHg 72%
    19:00 -6°C° 0 mm 1 m/S 633 mmHg 72%
    20:00 -6°C° 0 mm 1 m/S 634 mmHg 73%
    21:00 -6°C° 0 mm 1 m/S 634 mmHg 73%
    22:00 -6°C° 0 mm 1 m/S 634 mmHg 73%
    23:00 -7°C° 0 mm 1 m/S 634 mmHg 73%

    übermorgen, 25 November, Samstag

    Zeit Temperatur Niederschläge Wind Luftdruck Luftfeuchtigkeit
    00:00 -8°C° 0 mm 2 m/S 634 mmHg 73%
    01:00 -8°C° 0 mm 2 m/S 634 mmHg 73%
    02:00 -8°C° 0 mm 2 m/S 634 mmHg 72%
    03:00 -8°C° 0 mm 2 m/S 635 mmHg 72%
    04:00 -8°C° 0,1 mm 2 m/S 635 mmHg 73%
    05:00 -7°C° 0,1 mm 2 m/S 636 mmHg 74%
    06:00 -7°C° 0,1 mm 2 m/S 636 mmHg 74%
    07:00 -7°C° 0,1 mm 2 m/S 637 mmHg 73%
    08:00 -6°C° 0,1 mm 2 m/S 638 mmHg 71%
    09:00 -5°C° 0,1 mm 2 m/S 638 mmHg 70%
    10:00 -5°C° 0 mm 2 m/S 638 mmHg 65%
    11:00 -4°C° 0 mm 2 m/S 639 mmHg 61%
    12:00 -4°C° 0 mm 3 m/S 639 mmHg 56%
    13:00 -3°C° 0 mm 2 m/S 639 mmHg 56%
    14:00 -3°C° 0 mm 2 m/S 638 mmHg 56%
    15:00 -3°C° 0 mm 2 m/S 638 mmHg 56%
    16:00 -5°C° 0 mm 2 m/S 638 mmHg 59%
    17:00 -4°C° 0 mm 1 m/S 638 mmHg 62%
    18:00 -7°C° 0 mm 1 m/S 638 mmHg 65%
    19:00 -7°C° 0 mm 1 m/S 639 mmHg 64%
    20:00 -7°C° 0 mm 1 m/S 639 mmHg 63%
    21:00 -8°C° 0 mm 2 m/S 639 mmHg 63%
    22:00 -8°C° 0 mm 2 m/S 639 mmHg 62%
    23:00 -7°C° 0 mm 1 m/S 639 mmHg 62%

    26 November, Sonntag

    Zeit Temperatur Niederschläge Wind Luftdruck Luftfeuchtigkeit
    00:00 -7°C° 0 mm 1 m/S 639 mmHg 61%
    01:00 -7°C° 0 mm 1 m/S 639 mmHg 61%
    02:00 -7°C° 0 mm 1 m/S 639 mmHg 61%
    03:00 -8°C° 0 mm 1 m/S 639 mmHg 61%
    04:00 -8°C° 0 mm 1 m/S 639 mmHg 61%
    05:00 -8°C° 0 mm 1 m/S 638 mmHg 61%
    06:00 -8°C° 0 mm 1 m/S 638 mmHg 61%
    07:00 -7°C° 0 mm 1 m/S 639 mmHg 60%
    08:00 -4°C° 0 mm 1 m/S 639 mmHg 59%
    09:00 -3°C° 0 mm 1 m/S 639 mmHg 57%
    10:00 -2°C° 0 mm 1 m/S 639 mmHg 54%
    11:00 0°C° 0 mm 1 m/S 639 mmHg 52%
    12:00 +1°C° 0 mm 1 m/S 639 mmHg 49%
    13:00 +1°C° 0 mm 1 m/S 638 mmHg 49%
    14:00 +1°C° 0 mm 1 m/S 638 mmHg 50%
    15:00 +1°C° 0 mm 1 m/S 637 mmHg 50%
    16:00 -1°C° 0 mm 1 m/S 637 mmHg 51%
    17:00 -2°C° 0 mm 1 m/S 637 mmHg 52%
    18:00 -6°C° 0 mm 2 m/S 636 mmHg 53%
    19:00 -6°C° 0 mm 2 m/S 636 mmHg 50%
    20:00 -6°C° 0 mm 2 m/S 637 mmHg 48%
    21:00 -6°C° 0 mm 2 m/S 637 mmHg 46%
    22:00 -6°C° 0 mm 2 m/S 637 mmHg 46%
    23:00 -6°C° 0 mm 2 m/S 637 mmHg 46%

    27 November, Montag

    Zeit Temperatur Niederschläge Wind Luftdruck Luftfeuchtigkeit
    00:00 -6°C° 0 mm 2 m/S 636 mmHg 46%
    01:00 -6°C° 0 mm 2 m/S 636 mmHg 46%
    02:00 -6°C° 0 mm 2 m/S 636 mmHg 46%
    03:00 -7°C° 0 mm 2 m/S 636 mmHg 46%
    04:00 -7°C° 0 mm 2 m/S 636 mmHg 46%
    05:00 -7°C° 0 mm 2 m/S 636 mmHg 46%
    06:00 -7°C° 0 mm 2 m/S 635 mmHg 46%
    07:00 -5°C° 0 mm 2 m/S 636 mmHg 45%
    08:00 -4°C° 0 mm 2 m/S 636 mmHg 45%
    09:00 -3°C° 0 mm 2 m/S 636 mmHg 45%
    10:00 -1°C° 0 mm 2 m/S 636 mmHg 44%
    11:00 +1°C° 0 mm 2 m/S 636 mmHg 43%
    12:00 +3°C° 0 mm 2 m/S 636 mmHg 42%
    13:00 +2°C° 0 mm 2 m/S 636 mmHg 42%
    14:00 +2°C° 0 mm 2 m/S 635 mmHg 42%
    15:00 +3°C° 0 mm 1 m/S 635 mmHg 42%
    16:00 -1°C° 0 mm 2 m/S 635 mmHg 43%
    17:00 -2°C° 0 mm 2 m/S 635 mmHg 44%
    18:00 -4°C° 0 mm 2 m/S 634 mmHg 45%
    19:00 -4°C° 0 mm 2 m/S 634 mmHg 45%
    20:00 -4°C° 0 mm 2 m/S 634 mmHg 45%
    21:00 -5°C° 0 mm 2 m/S 634 mmHg 44%
    22:00 -5°C° 0 mm 2 m/S 634 mmHg 45%
    23:00 -5°C° 0 mm 2 m/S 634 mmHg 46%

    28 November, Dienstag

    Zeit Temperatur Niederschläge Wind Luftdruck Luftfeuchtigkeit
    00:00 -5°C° 0 mm 2 m/S 634 mmHg 47%
    01:00 -5°C° 0 mm 2 m/S 634 mmHg 49%
    02:00 -5°C° 0 mm 2 m/S 634 mmHg 50%
    03:00 -5°C° 0 mm 2 m/S 634 mmHg 52%
    04:00 -5°C° 0 mm 2 m/S 634 mmHg 53%
    05:00 -5°C° 0 mm 2 m/S 634 mmHg 54%
    06:00 -5°C° 0 mm 2 m/S 634 mmHg 55%
    07:00 -4°C° 0 mm 2 m/S 634 mmHg 55%
    08:00 -3°C° 0 mm 2 m/S 634 mmHg 56%
    09:00 -2°C° 0 mm 2 m/S 635 mmHg 56%
    10:00 +1°C° 0 mm 2 m/S 634 mmHg 55%
    11:00 +2°C° 0 mm 2 m/S 634 mmHg 54%
    12:00 +3°C° 0 mm 2 m/S 634 mmHg 54%
    13:00 +3°C° 0 mm 2 m/S 634 mmHg 55%
    14:00 +3°C° 0 mm 2 m/S 634 mmHg 56%
    15:00 +3°C° 0 mm 2 m/S 633 mmHg 58%
    16:00 +1°C° 0 mm 2 m/S 633 mmHg 60%
    17:00 -1°C° 0 mm 2 m/S 633 mmHg 63%
    18:00 -2°C° 0 mm 2 m/S 633 mmHg 65%
    19:00 -3°C° 0 mm 2 m/S 634 mmHg 66%
    20:00 -3°C° 0 mm 2 m/S 634 mmHg 67%
    21:00 -3°C° 0 mm 2 m/S 634 mmHg 67%
    22:00 -3°C° 0 mm 2 m/S 634 mmHg 68%
    23:00 -3°C° 0 mm 2 m/S 634 mmHg 69%
    Mehr zeigen